Regional Weather Roundup
Issued by NWS

Home | Current Version | Previous Version | Text Only | Print | Product List | Glossary On
Versions: 1 2 3 4 5 6 7 8 9 10 11 12 13 14 15 16 17 18 19 20 21 22 23 24 25 26 27 28 29 30 31 32 33 34 35 36 37 38 39 40 41 42 43 44 45 46 47 48 49 50
170
ASUS43 KTOP 191408
RWRKS

WEATHER ROUNDUP FOR KANSAS
NATIONAL WEATHER SERVICE GOODLAND KS
800 AM CST SUN NOV 19 2017

NOTE:  "FAIR" INDICATES FEW OR NO CLOUDS BELOW 12,000 FEET WITH NO
SIGNIFICANT WEATHER AND/OR OBSTRUCTIONS TO VISIBILITY.

KSZ001>006-013>018-027>032-041>047-191500-
NORTHWEST KANSAS

CITY           SKY/WX    TMP DP  RH WIND       PRES   REMARKS
GOODLAND       CLOUDY    29  15  56 SW14      30.18F WCI  18
HAYS           CLEAR     23  18  81 W6        30.26S
HILL CITY      CLEAR     25  19  78 W6        30.23S
RUSSELL        CLEAR     24  21  88 SW9       30.24S
$$

KSZ061>065-074>080-084>089-191500-
SOUTHWEST KANSAS

CITY           SKY/WX    TMP DP  RH WIND       PRES   REMARKS
DODGE CITY     CLOUDY    25  15  66 S6        30.26S
ELKHART        CLEAR     32  21  65 SW14      30.22F WCI  22
GARDEN CITY    CLOUDY    24  15  68 S7        30.24S
GREAT BEND     CLEAR     24  20  84 CALM      30.27S
LIBERAL        CLEAR     23  17  78 SW8       30.27F
PRATT          PTCLDY    30  20  65 W10       30.29R WCI  21
$$

KSZ066>073-081>083-090>101-191500-
SOUTHEAST KANSAS

CITY           SKY/WX    TMP DP  RH WIND       PRES   REMARKS
CHANUTE        CLEAR     31  27  85 CALM      30.31R
COFFEYVILLE    PTCLDY    30  29  96 CALM      30.32R
HUTCHINSON     PTCLDY    26  22  84 NW5       30.28R
MEDICINE LODGE   N/A     27  20  75 CALM      30.31R
NEWTON         PTCLDY    30  24  78 W7        30.29R
PARSONS        PTCLDY    29  27  92 CALM      30.33R
WICHITA INTL   CLEAR     29  25  85 CALM      30.30R
WICHITA JABRA  PTCLDY    31  26  82 CALM      30.29R
WICHITA MCCONL PTCLDY    30  24  76 CALM      30.30R
WINFIELD       CLEAR     28  24  85 N3        30.32R
$$

KSZ007>012-019>026-033>040-048>060-102>105-191500-
NORTHEAST KANSAS

CITY           SKY/WX    TMP DP  RH WIND       PRES   REMARKS
CONCORDIA      CLEAR     30  23  75 W6        30.22S
EMPORIA        CLEAR     29  24  82 SW3       30.28S
LAWRENCE       CLEAR     26  24  92 E5        30.29R
MANHATTAN      CLEAR     26  23  88 CALM      30.27R
MARYSVILLE     CLEAR     25  23  93 S3        30.24S
OLATHE IND     CLEAR     30  25  81 CALM      30.29R
OLATHE EXE     CLEAR     29  24  82 W3        30.28R
SALINA         CLEAR     26  23  88 S3        30.27S
TOPEKA BILLARD CLEAR     26  25  96 CALM      30.28R
TOPEKA FORBES  CLEAR     28  25  88 SW7       30.27S
$$




USA.gov is the U.S. government's official web portal to all federal, state and local government web resources and services.